STARLINK-11260, 60997

Orbit data source: Space-Track

STARLINK-11260, 60997 is a payload satellite owned by SpaceX/Seattle (US) in LEO that was launched on Thu, 05 Sep 2024 UTC via an FALCON 9 launch vehicle from the Air Force Eastern Test Range (AFETR). Payload-class satellites include a variety of spacecraft equipped with specific instruments for various scientific and technological missions. These include communications satellites like Starlink; space stations such as the ISS; scientific satellites like the Hubble; Earth observation satellites from companies like Planet Labs, Umbra, and HawkEye 360; GPS; miniature CubeSats for education and research; and military/defense satellites.

Loading next visibility...
Identifier
60997, 2024-158H
Orbit
LEO
Country
Flag of USUS
Related business
Manufacturer
SpaceX/Seattle
Mission
Operational Commercial Communications
Bus & Motor
STARLINK V2MD, Unknown motor
Mass
960 kg wet, ~910 kg dry
Launch date (UTC)
2024-09-05 (1 year ago)
Launch vehicle
FALCON 9
Launch site
Air Force Eastern Test Range (AFETR)
Object type
Payload
Rocket body
Debris
Shape & HBR
Box + 2 Pan, 18.1 m
Radar Cross Section
36.964 m², Large (>1 m²)

Expand to show TLE details & history
Last TLE update: 20 hours ago

TLE from 20 hours ago
0 STARLINK-11260
1 60997U 24158H   25290.44040752 -.00001451  00000-0 -71178-5 0  9997
2 60997  53.1584 245.2743 0001127 117.5901 242.5232 15.69719798 65453
Epoch: 2025-10-17T10:34Z
TLE epoch observation values (Epoch: 2025-10-17T10:34:11.209Z)
Latitude
0.00001°
Longitude
60.54186°
Altitude
360.964 km
Speed
7.694 km/s
True Right ascension
16h 21m 05s
True Declination
0° 00' 00"
Sunlit
Object was in daylight at epoch
Visualization orbit readout
Latitude
Unknown
Longitude
Unknown
Altitude
Unknown
Speed
Unknown
Apparent Right ascension
Unknown
Apparent Declination
Unknown
Sunlit
N/A
Visualization observer readout
Local Sidereal Time
01:31:17
Azimuth
Unknown
Elevation
Unknown
Doppler factor
Unknown
Orbital elements
Apogee altitude
360.719 km
Perigee altitude
359.2 km
Semi-major axis
6,738.097 km
Eccentricity
0.00011
Inclination
53.1584°
RAAN
245.2743°
Arg. of periapsis
117.5901°
True anomaly
242.51174°
Mean anomaly
242.5232°
Eccentric anomaly
242.51747°
Mean motion
3.92408 °/min
Orbital period
91.74 mins
BSTAR
-0.0000071178
Loading maneuver chart data...
Computing Atmospheric mass density...
Loading historical data...
Loading historical data...
Loading historical data...
Loading historical data...
Loading historical data...
Loading historical data...
Loading historical data...

Documentation

Showing up to 5 results
|